Theta_e
310 309 309 309 309 309 309 309 310 310 310 311 311 312 312 313 313 313 317 315 314 313 313 312 312 313 317 318 316 315 318 318 319 319 320 318 318 318 318 318 317 316 316 315 314
310 310 310 309 309 309 309 309 310 310 310 311 311 312 313 313 313 316 316 315 314 313 312 314 315 315 318 319 319 319 319 318 315 317 318 319 319 318 317 317 316 315 313 313 313
310 310 310 310 309 309 309 309 309 310 310 311 312 312 313 313 317 319 314 312 312 312 312 313 315 316 317 318 319 319 318 315 315 317 318 319 318 318 317 316 316 316 315 313 312
310 310 311 310 310 309 309 309 309 310 310 311 312 312 313 314 319 318 315 311 311 311 311 313 316 317 319 319 318 317 317 316 317 316 317 318 318 317 317 315 315 315 314 312 312
310 310 311 310 310 309 309 309 309 309 310 311 312 312 313 319 319 319 318 318 312 311 314 316 316 318 319 318 317 317 318 317 317 316 316 317 317 317 316 315 314 313 312 312 311
309 310 311 310 309 309 308 308 309 309 310 311 311 312 315 319 318 318 317 318 317 311 312 313 316 316 316 317 317 317 317 317 317 317 317 316 316 316 316 314 312 311 311 310 311
311 310 309 309 308 308 308 308 309 309 310 311 311 313 316 316 317 318 318 317 317 314 314 314 315 316 317 317 316 316 316 317 317 317 316 316 315 314 315 313 311 310 310 309 310
307 307 307 307 307 308 308 308 309 310 310 311 312 316 317 317 318 318 318 318 317 316 314 315 315 315 316 316 316 316 317 319 317 317 315 315 317 316 313 311 311 310 310 309 309
312 311 311 310 310 309 309 309 310 310 311 312 314 318 319 319 318 318 318 316 316 315 315 315 313 315 315 315 317 317 318 319 318 316 313 313 318 313 312 311 312 312 311 310 308
318 317 316 316 316 316 315 313 312 312 312 314 316 317 316 317 317 317 317 315 314 314 313 313 314 315 315 315 318 320 319 319 319 315 315 313 313 313 312 311 312 313 311 309 308
324 323 321 319 317 316 316 316 318 320 317 314 319 318 319 317 316 315 316 314 314 314 315 314 315 316 316 315 317 317 317 318 318 315 315 314 315 315 313 312 312 313 312 309 308
324 323 323 323 323 319 317 316 320 319 318 319 318 319 319 316 313 314 314 314 315 316 316 314 315 316 317 317 318 317 317 317 317 315 314 314 315 314 313 311 312 312 312 309 307
323 322 322 321 323 322 320 317 316 317 319 318 318 318 319 318 315 314 314 314 315 316 316 317 318 317 316 317 317 316 317 317 317 317 313 312 314 314 315 315 312 312 312 310 307
324 323 322 321 321 321 320 322 317 316 319 319 320 320 319 318 315 316 315 315 314 316 316 316 317 317 315 317 316 317 316 316 316 316 316 314 318 318 316 315 311 311 311 309 306
322 322 321 321 319 320 320 321 317 317 323 320 319 318 318 317 315 313 314 313 314 313 316 317 314 315 316 316 315 316 314 315 316 315 314 315 316 317 316 317 311 309 308 308 306
320 321 321 321 320 320 321 320 317 319 322 320 315 315 315 316 312 310 311 311 312 314 314 314 313 314 314 314 314 313 314 314 315 315 317 317 318 319 319 317 313 309 307 307 305
316 319 318 319 319 320 319 317 318 318 320 319 317 317 318 317 313 311 311 311 313 315 316 315 314 314 313 313 312 314 315 318 319 318 319 317 318 319 317 314 313 309 307 306 304
308 311 314 318 318 318 318 318 316 318 320 316 318 317 319 318 316 312 312 313 312 314 317 317 319 314 312 314 316 313 315 318 320 322 320 312 315 316 309 308 311 310 307 305 303
307 307 308 314 315 316 317 318 318 318 319 318 317 319 320 319 317 314 313 314 314 312 317 318 320 314 312 313 315 314 315 315 318 307 313 317 314 313 308 307 307 307 305 305 302
306 310 310 308 309 313 318 319 316 317 319 320 320 318 320 319 316 315 315 315 315 313 314 318 322 313 307 311 312 314 314 316 316 321 322 319 317 317 310 308 305 306 305 304 302
307 311 311 309 310 314 315 313 317 316 317 319 321 321 319 320 317 316 318 317 316 314 313 316 318 311 309 310 314 311 313 314 317 316 323 319 320 315 316 310 306 306 305 304 302
307 310 311 311 313 312 313 314 314 316 316 317 318 319 321 319 320 319 317 317 317 316 315 315 318 317 312 311 311 313 315 315 319 319 316 318 321 310 309 309 307 307 305 304 302
307 310 310 313 314 314 312 312 313 315 316 318 318 318 318 319 321 319 318 317 316 315 315 316 317 321 320 313 309 311 312 314 316 314 317 317 319 306 307 309 307 306 305 304 302
306 310 310 312 313 313 313 313 313 313 313 316 317 318 318 319 318 320 318 315 313 314 315 316 314 317 322 320 312 310 311 312 314 317 317 318 318 310 308 308 307 306 305 304 303
304 307 311 311 312 312 313 313 313 315 315 314 315 317 318 319 319 319 318 317 311 310 313 315 316 315 316 317 316 312 311 312 313 314 316 317 316 316 310 307 308 308 306 304 303
304 305 309 310 311 312 312 312 314 314 314 314 316 316 317 318 318 318 318 316 317 310 310 312 314 314 316 314 315 317 316 313 311 312 314 314 315 314 315 310 307 308 307 304 303
301 303 305 307 309 311 311 311 312 311 311 313 314 314 312 314 313 310 310 310 314 314 311 310 311 313 317 313 314 317 316 317 316 312 313 313 313 307 309 307 307 307 306 305 304
Wind_Speed
6 5 3 3 2 1 1 2 2 3 4 5 6 7 8 8 8 7 3 5 6 5 3 1 3 4 6 4 4 2 2 4 2 3 2 10 5 3 1 4 5 1 2 6 4
5 5 4 3 3 3 3 3 4 4 5 6 7 8 9 10 10 6 6 7 6 4 1 4 2 2 1 1 3 2 2 5 8 7 4 9 3 12 3 7 5 4 2 2 2
8 6 6 5 5 5 5 5 5 5 6 7 8 9 9 10 7 1 5 4 2 3 3 5 4 1 3 1 2 1 2 5 5 7 6 4 1 1 4 5 7 9 6 3 2
10 9 8 7 7 7 7 7 7 7 7 7 8 8 8 7 3 3 4 4 3 3 8 5 2 2 2 2 3 3 3 3 3 0 1 1 1 2 7 3 6 9 8 4 5
12 11 10 10 9 9 8 8 8 8 9 9 9 9 7 4 5 6 7 4 1 4 5 1 2 4 4 3 1 4 3 1 3 3 5 4 6 7 6 11 9 8 7 7 8
15 13 12 11 10 11 10 10 10 10 10 10 10 9 6 6 7 8 8 7 7 6 4 2 2 2 5 3 2 4 6 7 7 9 8 5 8 8 6 14 10 8 9 10 11
16 15 13 12 11 11 11 11 12 12 11 11 10 10 10 13 10 8 7 7 7 8 5 7 6 3 3 4 3 4 5 8 16 14 5 7 8 10 13 13 12 11 12 11 10
16 15 14 12 12 11 12 12 13 13 12 11 10 9 8 11 14 14 13 12 10 9 9 9 6 3 3 0 2 3 4 3 6 15 6 8 8 11 17 15 15 14 12 11 11
16 15 15 14 13 12 13 13 13 14 13 11 9 5 7 10 13 15 12 7 9 9 8 6 6 4 3 3 4 6 5 7 4 14 6 8 5 6 14 16 17 18 15 14 13
14 14 14 13 12 12 12 12 13 14 14 12 12 6 15 6 9 9 12 11 5 7 4 5 6 3 3 5 6 6 6 7 7 8 7 8 13 7 17 19 22 19 18 16 14
18 16 14 13 12 11 9 7 6 5 11 13 4 6 6 11 6 9 11 14 8 6 6 9 4 9 14 12 12 9 9 7 9 4 5 10 12 11 23 22 21 24 23 20 16
20 19 16 14 13 12 9 5 7 4 9 15 21 21 15 10 5 11 16 11 10 7 11 2 10 14 8 10 8 9 11 11 8 6 4 8 12 11 14 22 33 28 25 22 21
22 18 14 13 14 16 14 10 11 9 7 12 25 26 25 27 14 21 25 14 7 9 12 10 4 14 12 7 4 9 10 8 8 4 6 6 10 14 12 24 24 26 25 24 26
26 22 18 12 17 18 19 13 13 1 5 7 11 10 22 14 10 23 28 15 8 14 10 12 17 11 6 12 9 9 9 11 10 4 5 7 8 4 8 13 13 23 21 22 22
18 20 17 17 12 16 11 9 11 5 6 4 9 8 11 18 7 7 25 13 9 8 7 6 8 9 13 8 9 5 4 3 3 6 6 7 9 4 10 18 17 21 27 25 26
21 24 23 16 21 17 14 12 18 5 11 3 4 7 7 15 3 5 8 5 1 4 10 8 3 3 5 2 5 8 5 2 1 1 7 11 12 6 12 16 7 17 28 30 30
24 22 18 21 18 19 19 16 4 5 4 5 5 8 9 7 6 5 8 9 9 6 14 7 12 4 4 5 5 6 6 2 3 3 7 4 10 18 3 2 8 19 30 34 35
19 24 26 23 23 13 22 4 5 8 14 4 4 6 9 9 6 6 7 8 17 7 3 9 5 20 12 13 8 11 9 5 7 5 4 2 8 6 3 5 5 30 34 35 37
17 17 27 30 26 25 20 6 9 9 7 10 6 7 8 9 6 7 9 6 8 18 10 5 7 4 10 6 9 6 9 11 4 2 2 6 8 7 5 3 1 21 31 34 38
12 15 27 22 25 25 10 14 9 10 4 4 16 14 13 12 8 12 13 8 9 16 17 4 4 3 2 6 4 2 4 3 3 4 6 6 10 11 7 11 8 15 29 32 35
11 8 11 19 25 18 10 7 9 21 14 4 7 11 12 9 13 10 6 4 15 15 24 4 4 1 4 6 11 4 4 5 5 4 3 4 8 3 17 14 18 17 31 36 39
14 5 11 24 13 8 13 7 7 5 30 9 7 11 12 7 5 11 13 8 16 11 10 5 2 5 9 8 10 10 9 13 5 7 8 6 17 4 6 11 20 22 30 33 38
8 18 13 30 8 12 6 16 11 9 13 6 13 11 5 5 4 11 16 14 13 10 12 9 4 4 3 1 2 7 12 16 19 2 17 5 12 4 6 6 18 23 29 33 36
5 4 18 22 18 14 14 16 16 21 24 14 3 17 12 20 14 6 9 7 5 16 15 12 5 9 14 4 6 6 14 18 16 11 19 20 23 3 3 5 10 22 29 33 38
10 8 9 6 13 19 12 5 18 17 18 27 18 21 16 13 15 20 17 12 4 3 8 10 9 11 23 21 11 6 6 20 23 33 14 30 22 23 10 12 20 25 26 30 36
9 9 14 14 16 18 21 19 16 12 16 12 11 13 20 17 13 6 20 12 19 6 7 5 6 11 23 22 16 19 13 19 26 29 27 30 27 4 16 24 17 24 29 30 32
21 22 7 7 5 8 17 24 21 25 27 17 7 13 5 6 13 4 7 6 7 12 14 10 7 6 16 7 11 12 30 25 22 26 22 25 38 5 4 9 18 23 27 30 32
Wind_Direction
185 186 195 194 205 227 273 307 311 316 323 325 328 332 333 331 331 326 336 280 292 298 293 338 21 7 51 1 24 11 306 268 215 297 80 127 163 159 159 129 116 88 114 137 172
216 220 228 250 255 267 272 282 293 307 314 319 325 331 334 333 334 326 301 294 281 269 191 77 11 37 176 346 350 312 341 347 7 25 359 136 287 152 177 169 138 135 109 130 181
239 243 249 252 268 274 279 284 292 299 307 316 323 328 336 341 351 304 346 339 289 223 188 153 126 42 289 316 177 154 259 13 66 37 348 109 195 147 253 247 66 143 184 194 220
247 249 257 261 264 270 278 284 292 297 301 309 316 322 331 340 333 5 21 29 53 127 125 109 75 262 295 241 130 287 199 332 48 35 299 292 335 238 232 144 180 178 192 201 190
249 254 258 266 272 276 276 281 284 290 298 305 311 319 333 327 260 278 291 286 223 157 123 92 324 322 271 14 18 226 281 104 245 228 229 269 245 247 188 216 220 215 201 202 204
248 252 257 263 269 276 280 282 285 289 295 302 308 314 321 258 264 269 275 260 238 215 225 186 331 303 297 301 246 6 335 277 220 219 230 228 253 230 201 202 212 214 214 206 208
249 250 254 260 265 272 278 283 287 290 294 300 305 309 290 264 266 269 258 250 238 218 207 224 227 220 350 239 254 306 300 265 228 212 237 206 271 230 203 202 192 198 210 209 211
245 249 251 254 261 268 276 282 288 290 293 296 299 304 263 264 257 259 253 243 233 228 219 232 221 207 197 275 242 249 231 282 351 165 163 156 264 203 176 178 191 199 206 219 233
244 246 249 253 257 265 272 280 285 288 289 290 296 290 260 250 245 248 238 233 219 224 226 227 179 210 160 215 261 202 261 231 191 181 136 186 273 154 177 193 206 200 209 225 228
244 245 248 250 256 263 269 277 285 286 278 279 257 272 239 235 234 219 206 196 173 188 159 168 185 208 206 193 218 215 211 258 242 201 187 195 258 178 196 206 217 212 208 216 220
248 246 250 256 259 263 272 285 286 278 231 213 227 204 184 217 214 205 189 172 148 174 192 197 204 209 213 211 243 279 298 283 291 133 185 228 246 235 200 212 217 218 208 211 212
249 251 250 259 267 264 258 212 249 267 292 253 247 247 244 235 188 199 176 167 182 200 202 116 230 235 236 242 230 242 256 264 283 147 182 265 262 262 195 209 211 211 207 202 199
249 247 246 252 260 256 256 242 252 273 262 257 243 235 224 225 211 206 182 194 189 203 198 203 191 215 226 245 226 246 241 253 246 256 211 273 268 246 252 224 208 214 214 205 205
235 240 248 255 239 245 251 253 243 262 273 230 196 229 205 208 235 227 208 180 194 213 213 233 238 254 222 223 183 243 223 237 253 273 248 148 281 258 259 234 194 201 200 194 193
222 216 228 223 224 218 243 266 184 153 264 340 121 148 171 171 136 143 192 209 199 188 183 212 179 208 208 200 183 218 56 353 205 257 288 269 284 240 214 249 212 200 195 196 191
218 224 228 220 244 237 249 237 154 136 231 178 117 144 145 218 76 110 175 155 241 280 249 245 82 226 199 133 209 121 92 91 90 228 255 212 219 249 226 232 210 192 188 190 187
251 233 212 227 234 233 229 164 158 210 261 176 176 169 194 168 152 172 177 187 187 178 227 220 228 190 148 103 5 159 137 228 264 199 240 162 220 241 287 126 195 184 184 187 185
269 257 251 223 236 236 206 165 194 219 230 59 111 177 192 147 187 193 174 207 223 252 340 194 242 188 178 206 174 187 185 168 227 215 281 329 239 247 329 43 220 184 178 181 183
268 261 247 237 229 228 191 208 206 205 192 176 143 202 199 173 141 169 215 221 195 203 198 202 233 66 153 197 190 182 217 228 339 109 349 220 261 277 181 209 131 158 171 178 179
264 259 251 238 223 221 232 232 228 220 328 245 211 190 195 178 178 187 186 198 215 185 216 243 244 9 75 80 327 179 170 125 150 224 233 261 251 239 232 217 201 180 180 180 179
249 252 258 233 211 201 229 231 250 242 248 195 295 240 217 189 186 193 222 210 190 187 192 189 174 167 109 195 178 145 215 219 181 189 228 303 256 260 226 196 192 194 185 183 182
230 234 217 194 183 206 224 215 217 261 234 240 250 270 258 254 176 233 209 237 192 147 188 195 33 220 203 201 212 206 191 198 190 224 229 242 264 18 348 185 181 189 188 187 187
231 232 224 196 208 213 199 224 229 225 230 215 222 225 221 243 232 227 246 261 181 161 171 158 186 232 261 82 57 210 219 214 222 109 236 171 261 343 1 136 180 179 184 185 186
231 226 216 216 225 219 216 223 219 219 238 241 269 226 213 234 230 239 226 249 277 189 180 131 172 214 228 148 128 192 205 214 208 221 239 227 248 259 249 232 182 188 187 185 188
215 240 230 198 219 222 206 192 228 224 212 220 229 235 241 238 223 231 232 248 341 54 136 156 219 211 247 258 276 200 196 212 209 227 213 246 234 241 218 203 210 197 186 186 189
222 218 239 259 228 221 219 223 237 228 224 224 246 214 221 240 217 218 230 210 223 169 169 176 232 215 254 248 249 259 226 224 226 230 234 252 257 195 253 210 176 186 185 191 193
231 245 245 250 244 245 219 225 230 232 249 234 229 224 254 276 256 338 21 9 245 196 192 171 192 192 249 203 238 257 238 231 228 234 228 239 247 141 134 155 182 188 188 194 199